Time,TemperatureF,DewpointF,PressureIn,WindDirection,WindDirectionDegrees,WindSpeedMPH,WindSpeedGustMPH,Humidity,HourlyPrecipIn,Conditions,Clouds,dailyrainin,SolarRadiationWatts/m^2,SoftwareType,DateUTC
2013-08-04 00:02:00,78.8,71.7,29.96,SE,130,0.0,0.0,79,0.00,,CLR,0.00,0.00,VWS V14.01,2013-08-04 05:02:00,
2013-08-04 00:07:00,78.6,71.6,29.96,SE,130,0.0,0.0,79,0.00,,CLR,0.00,0.00,VWS V14.01,2013-08-04 05:07:00,
2013-08-04 00:12:00,78.6,71.6,29.96,SE,130,0.0,0.0,79,0.00,,CLR,0.00,0.00,VWS V14.01,2013-08-04 05:12:00,
2013-08-04 00:17:00,78.6,71.6,29.96,SE,130,0.0,0.0,79,0.00,,CLR,0.00,0.00,VWS V14.01,2013-08-04 05:17:00,
2013-08-04 00:22:00,78.6,71.6,29.96,SE,130,0.0,0.0,79,0.00,,CLR,0.00,0.00,VWS V14.01,2013-08-04 05:22:00,
2013-08-04 00:27:00,78.6,71.6,29.96,SE,130,0.0,0.0,79,0.00,,CLR,0.00,0.00,VWS V14.01,2013-08-04 05:27:00,
2013-08-04 00:32:00,78.6,71.6,29.96,SE,130,0.0,0.0,79,0.00,,CLR,0.00,0.00,VWS V14.01,2013-08-04 05:32:00,
2013-08-04 00:37:00,78.4,71.3,29.96,SE,130,0.0,0.0,79,0.00,,CLR,0.00,0.00,VWS V14.01,2013-08-04 05:37:00,
2013-08-04 00:42:00,78.4,71.7,29.96,SE,130,0.0,0.0,80,0.00,,CLR,0.00,0.00,VWS V14.01,2013-08-04 05:42:00,
2013-08-04 00:47:00,78.4,71.7,29.95,SE,130,0.0,0.0,80,0.00,,CLR,0.00,0.00,VWS V14.01,2013-08-04 05:47:00,
2013-08-04 00:52:00,78.4,71.7,29.95,SE,130,0.0,0.0,80,0.00,,CLR,0.00,0.00,VWS V14.01,2013-08-04 05:52:00,
2013-08-04 00:57:00,78.4,71.7,29.95,SE,130,0.0,0.0,80,0.00,,CLR,0.00,0.00,VWS V14.01,2013-08-04 05:57:00,
2013-08-04 01:02:00,78.4,71.7,29.94,SE,130,0.0,0.0,80,0.00,,CLR,0.00,0.00,VWS V14.01,2013-08-04 06:02:00,
2013-08-04 01:07:00,78.3,71.6,29.94,SE,130,0.0,0.0,80,0.00,,CLR,0.00,0.00,VWS V14.01,2013-08-04 06:07:00,
2013-08-04 01:12:00,78.3,71.6,29.94,SE,130,0.0,0.0,80,0.00,,CLR,0.00,0.00,VWS V14.01,2013-08-04 06:12:00,
2013-08-04 01:17:00,78.3,71.6,29.93,SE,130,0.0,0.0,80,0.00,,CLR,0.00,0.00,VWS V14.01,2013-08-04 06:17:00,
2013-08-04 01:22:00,78.3,71.6,29.93,SE,130,0.0,0.0,80,0.00,,CLR,0.00,0.00,VWS V14.01,2013-08-04 06:22:00,
2013-08-04 01:27:00,78.1,71.4,29.93,SE,130,0.0,0.0,80,0.00,,CLR,0.00,0.00,VWS V14.01,2013-08-04 06:27:00,
2013-08-04 01:32:00,78.1,71.8,29.92,SE,130,0.0,0.0,81,0.00,,CLR,0.00,0.00,VWS V14.01,2013-08-04 06:32:00,
2013-08-04 01:36:00,78.1,71.8,29.92,SE,130,0.0,1.0,81,0.00,,CLR,0.00,0.00,VWS V14.01,2013-08-04 06:36:00,
2013-08-04 01:42:00,77.9,71.6,29.92,SE,130,0.0,0.0,81,0.00,,CLR,0.00,0.00,VWS V14.01,2013-08-04 06:42:00,
2013-08-04 01:47:00,77.9,71.6,29.90,SE,130,0.0,0.0,81,0.00,,CLR,0.00,0.00,VWS V14.01,2013-08-04 06:47:00,
2013-08-04 01:52:00,77.9,71.6,29.90,SE,130,0.0,0.0,81,0.00,,CLR,0.00,0.00,VWS V14.01,2013-08-04 06:52:00,
2013-08-04 01:57:00,77.7,71.4,29.90,SE,130,0.0,0.0,81,0.00,,CLR,0.00,0.00,VWS V14.01,2013-08-04 06:57:00,
2013-08-04 02:02:00,77.7,71.4,29.90,SE,130,0.0,0.0,81,0.00,,FEW110,0.00,0.00,VWS V14.01,2013-08-04 07:02:00,
2013-08-04 02:07:00,77.7,71.4,29.90,SE,130,0.0,0.0,81,0.00,,FEW110,0.00,0.00,VWS V14.01,2013-08-04 07:07:00,
2013-08-04 02:12:00,77.5,71.2,29.90,SE,130,0.0,0.0,81,0.00,,FEW110,0.00,0.00,VWS V14.01,2013-08-04 07:12:00,
2013-08-04 02:17:00,77.5,71.2,29.91,SE,130,0.0,0.0,81,0.00,,FEW110,0.00,0.00,VWS V14.01,2013-08-04 07:17:00,
2013-08-04 02:22:00,77.5,71.6,29.91,SE,130,0.0,0.0,82,0.00,,FEW110,0.00,0.00,VWS V14.01,2013-08-04 07:22:00,
2013-08-04 02:27:00,77.5,71.6,29.91,SE,130,0.0,0.0,82,0.00,,FEW110,0.00,0.00,VWS V14.01,2013-08-04 07:27:00,
2013-08-04 02:32:00,77.4,71.5,29.92,SE,130,0.0,0.0,82,0.00,,FEW110,0.00,0.00,VWS V14.01,2013-08-04 07:32:00,
2013-08-04 02:37:00,77.4,71.5,29.92,SE,130,0.0,0.0,82,0.00,,FEW110,0.00,0.00,VWS V14.01,2013-08-04 07:37:00,
2013-08-04 02:42:00,77.4,71.5,29.92,SE,130,0.0,0.0,82,0.00,,FEW110,0.00,0.00,VWS V14.01,2013-08-04 07:42:00,
2013-08-04 02:47:00,77.4,71.5,29.92,SE,130,0.0,0.0,82,0.00,,FEW110,0.00,0.00,VWS V14.01,2013-08-04 07:47:00,
2013-08-04 02:52:00,77.4,71.8,29.92,SE,130,0.0,0.0,83,0.00,,FEW110,0.00,0.00,VWS V14.01,2013-08-04 07:52:00,
2013-08-04 02:57:00,77.4,71.8,29.92,SE,130,0.0,0.0,83,0.00,,FEW110,0.00,0.00,VWS V14.01,2013-08-04 07:57:00,
2013-08-04 03:02:00,77.2,71.6,29.92,SE,130,0.0,0.0,83,0.00,,FEW070,0.00,0.00,VWS V14.01,2013-08-04 08:02:00,
2013-08-04 03:07:00,77.2,71.6,29.92,SE,130,0.0,0.0,83,0.00,,FEW070,0.00,0.00,VWS V14.01,2013-08-04 08:07:00,
2013-08-04 03:12:00,77.2,71.6,29.92,SE,130,0.0,0.0,83,0.00,,FEW070,0.00,0.00,VWS V14.01,2013-08-04 08:12:00,
2013-08-04 03:17:00,77.2,71.6,29.93,SE,130,0.0,0.0,83,0.00,,FEW070,0.00,0.00,VWS V14.01,2013-08-04 08:17:00,
2013-08-04 03:22:00,77.2,71.6,29.93,SE,130,0.0,0.0,83,0.00,,FEW070,0.00,0.00,VWS V14.01,2013-08-04 08:22:00,
2013-08-04 03:27:00,77.2,71.6,29.93,SE,130,0.0,0.0,83,0.00,,FEW070,0.00,0.00,VWS V14.01,2013-08-04 08:27:00,
2013-08-04 03:32:00,77.2,71.6,29.93,SE,130,0.0,0.0,83,0.00,,FEW070,0.00,0.00,VWS V14.01,2013-08-04 08:32:00,
2013-08-04 03:37:00,77.2,72.0,29.93,SE,130,0.0,0.0,84,0.00,,FEW070,0.00,0.00,VWS V14.01,2013-08-04 08:37:00,
2013-08-04 03:42:00,77.2,72.0,29.93,SE,130,0.0,0.0,84,0.00,,FEW070,0.00,0.00,VWS V14.01,2013-08-04 08:42:00,
2013-08-04 03:47:00,77.2,72.0,29.93,SE,130,0.0,0.0,84,0.00,,FEW070,0.00,0.00,VWS V14.01,2013-08-04 08:47:00,
2013-08-04 03:52:00,77.2,72.0,29.93,SE,130,0.0,0.0,84,0.00,,FEW070,0.00,0.00,VWS V14.01,2013-08-04 08:52:00,
2013-08-04 03:57:00,77.4,72.2,29.93,SE,130,0.0,0.0,84,0.00,,FEW070,0.00,0.00,VWS V14.01,2013-08-04 08:57:00,
2013-08-04 04:02:00,77.4,72.2,29.93,SE,130,0.0,0.0,84,0.00,,CLR,0.00,0.00,VWS V14.01,2013-08-04 09:02:00,
2013-08-04 04:07:00,77.4,72.2,29.93,SE,130,0.0,0.0,84,0.00,,CLR,0.00,0.00,VWS V14.01,2013-08-04 09:07:00,
2013-08-04 04:12:00,77.4,72.2,29.93,SE,130,0.0,0.0,84,0.00,,CLR,0.00,0.00,VWS V14.01,2013-08-04 09:12:00,
2013-08-04 04:17:00,77.4,72.2,29.94,SE,130,0.0,0.0,84,0.00,,CLR,0.00,0.00,VWS V14.01,2013-08-04 09:17:00,
2013-08-04 04:22:00,77.4,72.2,29.94,SE,130,0.0,0.0,84,0.00,,CLR,0.00,0.00,VWS V14.01,2013-08-04 09:22:00,
2013-08-04 04:27:00,77.4,72.2,29.94,SE,130,0.0,1.0,84,0.00,,CLR,0.00,0.00,VWS V14.01,2013-08-04 09:27:00,
2013-08-04 04:32:00,77.4,72.2,29.94,SE,130,0.0,0.0,84,0.00,,CLR,0.00,0.00,VWS V14.01,2013-08-04 09:32:00,
2013-08-04 04:37:00,77.4,72.2,29.94,SE,130,0.0,2.0,84,0.00,,CLR,0.00,0.00,VWS V14.01,2013-08-04 09:37:00,
2013-08-04 04:42:00,77.5,72.3,29.94,SE,130,0.0,0.0,84,0.00,,CLR,0.00,0.00,VWS V14.01,2013-08-04 09:42:00,
2013-08-04 04:47:00,77.5,72.3,29.94,SE,130,0.0,0.0,84,0.00,,CLR,0.00,0.00,VWS V14.01,2013-08-04 09:47:00,
2013-08-04 04:52:00,77.5,72.3,29.94,SE,130,0.0,0.0,84,0.00,,CLR,0.00,0.00,VWS V14.01,2013-08-04 09:52:00,
2013-08-04 04:57:00,77.5,72.3,29.94,SE,130,0.0,0.0,84,0.00,,CLR,0.00,0.00,VWS V14.01,2013-08-04 09:57:00,
2013-08-04 05:02:00,77.5,72.3,29.94,SE,130,0.0,0.0,84,0.00,,CLR,0.00,0.00,VWS V14.01,2013-08-04 10:02:00,
2013-08-04 05:07:00,77.5,72.3,29.94,SE,130,0.0,2.0,84,0.00,,CLR,0.00,0.00,VWS V14.01,2013-08-04 10:07:00,
2013-08-04 05:12:00,77.5,72.6,29.94,SE,130,0.0,0.0,85,0.00,,CLR,0.00,0.00,VWS V14.01,2013-08-04 10:12:00,
2013-08-04 05:17:00,77.5,72.6,29.93,SE,130,0.0,0.0,85,0.00,,CLR,0.00,0.00,VWS V14.01,2013-08-04 10:17:00,
2013-08-04 05:22:00,77.5,72.6,29.93,SE,130,0.0,0.0,85,0.00,,CLR,0.00,0.00,VWS V14.01,2013-08-04 10:22:00,
2013-08-04 05:27:00,77.5,72.6,29.93,SE,130,0.0,0.0,85,0.00,,CLR,0.00,0.00,VWS V14.01,2013-08-04 10:27:00,
2013-08-04 05:32:00,77.5,72.6,29.93,SE,130,0.0,0.0,85,0.00,,CLR,0.00,0.00,VWS V14.01,2013-08-04 10:32:00,
2013-08-04 05:37:00,77.4,72.5,29.93,SE,130,0.0,0.0,85,0.00,,CLR,0.00,0.00,VWS V14.01,2013-08-04 10:37:00,
2013-08-04 05:42:00,77.4,72.5,29.93,SE,130,0.0,0.0,85,0.00,,CLR,0.00,0.00,VWS V14.01,2013-08-04 10:42:00,
2013-08-04 05:47:00,77.4,72.5,29.94,SE,130,0.0,0.0,85,0.00,,CLR,0.00,0.00,VWS V14.01,2013-08-04 10:47:00,
2013-08-04 05:52:00,77.4,72.5,29.94,SE,130,0.0,0.0,85,0.00,,CLR,0.00,0.00,VWS V14.01,2013-08-04 10:52:00,
2013-08-04 05:57:00,77.4,72.5,29.94,SE,130,0.0,0.0,85,0.00,,CLR,0.00,0.00,VWS V14.01,2013-08-04 10:57:00,
2013-08-04 06:02:00,77.4,72.5,29.95,SE,130,0.0,0.0,85,0.00,,CLR,0.00,0.00,VWS V14.01,2013-08-04 11:02:00,
2013-08-04 06:07:00,77.4,72.5,29.95,SE,130,0.0,0.0,85,0.00,,CLR,0.00,0.00,VWS V14.01,2013-08-04 11:07:00,
2013-08-04 06:12:00,77.4,72.5,29.95,SE,130,0.0,0.0,85,0.00,,CLR,0.00,0.00,VWS V14.01,2013-08-04 11:12:00,
2013-08-04 06:17:00,77.4,72.5,29.95,SE,130,0.0,0.0,85,0.00,,CLR,0.00,0.00,VWS V14.01,2013-08-04 11:17:00,
2013-08-04 06:22:00,77.4,72.9,29.95,SE,130,0.0,0.0,86,0.00,,CLR,0.00,0.00,VWS V14.01,2013-08-04 11:22:00,
2013-08-04 06:27:00,77.2,72.7,29.95,SE,130,0.0,0.0,86,0.00,,CLR,0.00,0.00,VWS V14.01,2013-08-04 11:27:00,
2013-08-04 06:32:00,77.2,72.7,29.96,SE,130,0.0,0.0,86,0.00,,CLR,0.00,0.00,VWS V14.01,2013-08-04 11:32:00,
2013-08-04 06:37:00,77.2,72.7,29.96,SE,130,0.0,0.0,86,0.00,,CLR,0.00,0.00,VWS V14.01,2013-08-04 11:37:00,
2013-08-04 06:42:00,77.2,72.7,29.96,SE,130,0.0,0.0,86,0.00,,CLR,0.00,0.00,VWS V14.01,2013-08-04 11:42:00,
2013-08-04 06:47:00,77.2,72.7,29.96,SE,130,0.0,0.0,86,0.00,,CLR,0.00,0.00,VWS V14.01,2013-08-04 11:47:00,
2013-08-04 06:52:00,77.2,72.7,29.96,SE,130,0.0,0.0,86,0.00,,CLR,0.00,0.00,VWS V14.01,2013-08-04 11:52:00,
2013-08-04 06:57:00,77.2,72.7,29.96,SE,130,0.0,2.0,86,0.00,,CLR,0.00,0.00,VWS V14.01,2013-08-04 11:57:00,
2013-08-04 07:02:00,77.2,72.7,29.97,SE,130,0.0,0.0,86,0.00,,CLR,0.00,5.75,VWS V14.01,2013-08-04 12:02:00,
2013-08-04 07:07:00,77.2,72.7,29.97,SE,131,2.0,5.0,86,0.00,,CLR,0.00,8.05,VWS V14.01,2013-08-04 12:07:00,
2013-08-04 07:12:00,77.2,72.7,29.97,SE,131,0.0,0.0,86,0.00,,CLR,0.00,12.65,VWS V14.01,2013-08-04 12:12:00,
2013-08-04 07:17:00,77.2,72.7,29.97,SE,131,0.0,0.0,86,0.00,,CLR,0.00,16.10,VWS V14.01,2013-08-04 12:17:00,
2013-08-04 07:22:00,77.2,72.7,29.97,SE,131,0.0,0.0,86,0.00,,CLR,0.00,20.70,VWS V14.01,2013-08-04 12:22:00,
2013-08-04 07:27:00,77.2,72.7,29.97,SE,139,0.0,6.0,86,0.00,,CLR,0.00,26.45,VWS V14.01,2013-08-04 12:27:00,
2013-08-04 07:32:00,77.2,72.7,29.97,SE,139,0.0,0.0,86,0.00,,CLR,0.00,34.50,VWS V14.01,2013-08-04 12:32:00,
2013-08-04 07:37:00,77.2,72.7,29.97,SSE,150,0.0,6.0,86,0.00,,CLR,0.00,48.30,VWS V14.01,2013-08-04 12:37:00,
2013-08-04 07:42:00,77.4,73.2,29.97,SSE,155,0.0,5.0,87,0.00,,CLR,0.00,58.65,VWS V14.01,2013-08-04 12:42:00,
2013-08-04 07:47:00,77.4,73.2,29.97,SSE,156,1.0,5.0,87,0.00,,CLR,0.00,62.10,VWS V14.01,2013-08-04 12:47:00,
2013-08-04 07:52:00,77.4,73.2,29.97,SSE,168,4.0,6.0,87,0.00,,CLR,0.00,82.80,VWS V14.01,2013-08-04 12:52:00,
2013-08-04 07:57:00,77.4,73.2,29.97,South,170,2.0,6.0,87,0.00,,CLR,0.00,87.40,VWS V14.01,2013-08-04 12:57:00,
2013-08-04 08:02:00,77.5,73.0,29.97,South,171,0.0,7.0,86,0.00,,BKN080,0.00,66.70,VWS V14.01,2013-08-04 13:02:00,
2013-08-04 08:07:00,77.5,73.0,29.97,South,178,0.0,9.0,86,0.00,,BKN080,0.00,58.65,VWS V14.01,2013-08-04 13:07:00,
2013-08-04 08:12:00,77.5,73.0,29.97,South,175,0.0,4.0,86,0.00,,BKN080,0.00,60.95,VWS V14.01,2013-08-04 13:12:00,
2013-08-04 08:17:00,77.7,73.2,29.98,South,175,3.0,6.0,86,0.00,,BKN080,0.00,64.40,VWS V14.01,2013-08-04 13:17:00,
2013-08-04 08:21:00,77.7,73.2,29.98,South,173,0.0,1.0,86,0.00,,BKN080,0.00,77.05,VWS V14.01,2013-08-04 13:21:00,
2013-08-04 08:27:00,77.7,73.2,29.98,South,170,2.0,7.0,86,0.00,,BKN080,0.00,88.55,VWS V14.01,2013-08-04 13:27:00,
2013-08-04 08:32:00,77.9,73.4,29.98,South,169,4.0,7.0,86,0.00,,BKN080,0.00,96.60,VWS V14.01,2013-08-04 13:32:00,
2013-08-04 08:37:00,77.9,73.4,29.98,SSE,168,0.0,10.0,86,0.00,,BKN080,0.00,77.05,VWS V14.01,2013-08-04 13:37:00,
2013-08-04 08:42:00,77.9,73.4,29.98,SSE,159,4.0,5.0,86,0.00,,BKN080,0.00,72.45,VWS V14.01,2013-08-04 13:42:00,
2013-08-04 08:47:00,77.9,73.0,29.97,South,171,5.0,11.0,85,0.00,,BKN080,0.00,62.10,VWS V14.01,2013-08-04 13:47:00,
2013-08-04 08:52:00,77.9,73.0,29.97,South,172,1.0,6.0,85,0.00,,BKN080,0.00,66.70,VWS V14.01,2013-08-04 13:52:00,
2013-08-04 08:57:00,78.1,73.2,29.97,South,172,5.0,11.0,85,0.00,,BKN080,0.00,87.40,VWS V14.01,2013-08-04 13:57:00,
2013-08-04 09:02:00,78.1,73.2,29.98,South,171,4.0,7.0,85,0.00,,SCT075,0.00,117.30,VWS V14.01,2013-08-04 14:02:00,
2013-08-04 09:07:00,78.1,73.2,29.98,South,171,5.0,10.0,85,0.00,,SCT075,0.00,125.35,VWS V14.01,2013-08-04 14:07:00,
2013-08-04 09:12:00,78.3,73.4,29.98,SSE,167,0.0,0.0,85,0.00,,SCT075,0.00,165.60,VWS V14.01,2013-08-04 14:12:00,
2013-08-04 09:17:00,78.6,73.4,29.98,South,174,3.0,7.0,84,0.00,,SCT075,0.00,212.75,VWS V14.01,2013-08-04 14:17:00,
2013-08-04 09:22:00,79.2,73.9,29.98,South,172,0.0,0.0,84,0.00,,SCT075,0.00,295.55,VWS V14.01,2013-08-04 14:22:00,
2013-08-04 09:27:00,79.6,73.6,29.98,South,171,0.0,10.0,82,0.00,,SCT075,0.00,258.75,VWS V14.01,2013-08-04 14:27:00,
2013-08-04 09:31:00,79.9,73.6,29.98,South,183,0.0,1.0,81,0.00,,SCT075,0.00,175.95,VWS V14.01,2013-08-04 14:31:00,
2013-08-04 09:37:00,79.9,73.6,29.98,South,180,0.0,9.0,81,0.00,,SCT075,0.00,151.80,VWS V14.01,2013-08-04 14:37:00,
2013-08-04 09:42:00,80.1,73.4,29.98,South,177,0.0,0.0,80,0.00,,SCT075,0.00,143.75,VWS V14.01,2013-08-04 14:42:00,
2013-08-04 09:47:00,80.1,73.4,29.99,South,176,0.0,1.0,80,0.00,,SCT075,0.00,165.60,VWS V14.01,2013-08-04 14:47:00,
2013-08-04 09:52:00,80.1,73.4,29.99,South,176,0.0,0.0,80,0.00,,SCT075,0.00,147.20,VWS V14.01,2013-08-04 14:52:00,
2013-08-04 09:57:00,80.1,73.4,29.99,South,176,0.0,0.0,80,0.00,,SCT075,0.00,171.35,VWS V14.01,2013-08-04 14:57:00,
2013-08-04 10:02:00,80.3,73.6,30.00,South,176,0.0,0.0,80,0.00,,FEW080,0.00,202.40,VWS V14.01,2013-08-04 15:02:00,
2013-08-04 10:07:00,80.3,73.2,30.00,South,176,0.0,0.0,79,0.00,,FEW080,0.00,213.90,VWS V14.01,2013-08-04 15:07:00,
2013-08-04 10:11:00,80.5,73.8,30.00,South,176,0.0,0.0,80,0.00,,FEW080,0.00,216.20,VWS V14.01,2013-08-04 15:11:00,
2013-08-04 10:17:00,80.9,73.4,30.00,South,176,0.0,0.0,78,0.00,,FEW080,0.00,210.45,VWS V14.01,2013-08-04 15:17:00,
2013-08-04 10:22:00,81.0,73.9,30.00,South,176,0.0,0.0,79,0.00,,FEW080,0.00,244.95,VWS V14.01,2013-08-04 15:22:00,
2013-08-04 10:27:00,80.9,73.4,30.00,South,176,0.0,0.0,78,0.00,,FEW080,0.00,269.10,VWS V14.01,2013-08-04 15:27:00,
2013-08-04 10:32:00,81.2,73.7,30.00,South,176,0.0,0.0,78,0.00,,FEW080,0.00,404.80,VWS V14.01,2013-08-04 15:32:00,
2013-08-04 10:37:00,82.0,74.1,30.00,South,176,0.0,0.0,77,0.00,,FEW080,0.00,471.50,VWS V14.01,2013-08-04 15:37:00,
2013-08-04 10:42:00,82.4,74.1,30.00,South,176,0.0,0.0,76,0.00,,FEW080,0.00,640.55,VWS V14.01,2013-08-04 15:42:00,
2013-08-04 10:47:00,82.6,74.3,29.99,South,171,0.0,1.0,76,0.00,,FEW080,0.00,1008.55,VWS V14.01,2013-08-04 15:47:00,
2013-08-04 10:52:00,83.6,74.4,29.99,SSE,154,0.0,0.0,74,0.00,,FEW080,0.00,450.80,VWS V14.01,2013-08-04 15:52:00,
2013-08-04 10:57:00,83.4,74.2,29.99,SE,128,0.0,0.0,74,0.00,,FEW080,0.00,538.20,VWS V14.01,2013-08-04 15:57:00,
2013-08-04 11:02:00,83.0,74.7,29.98,ESE,106,0.0,0.0,76,0.00,,BKN090,0.00,438.15,VWS V14.01,2013-08-04 16:02:00,
2013-08-04 11:07:00,83.4,73.8,29.98,ESE,107,0.0,0.0,73,0.00,,BKN090,0.00,296.70,VWS V14.01,2013-08-04 16:07:00,
2013-08-04 11:12:00,83.2,73.7,29.98,ESE,107,0.0,0.0,73,0.00,,BKN090,0.00,319.70,VWS V14.01,2013-08-04 16:12:00,
2013-08-04 11:17:00,82.8,74.1,29.98,East,94,0.0,0.0,75,0.00,,BKN090,0.00,434.70,VWS V14.01,2013-08-04 16:17:00,
2013-08-04 11:22:00,82.8,74.1,29.98,East,96,0.0,1.0,75,0.00,,BKN090,0.00,362.25,VWS V14.01,2013-08-04 16:22:00,
2013-08-04 11:27:00,83.2,74.5,29.98,East,96,0.0,1.0,75,0.00,,BKN090,0.00,426.65,VWS V14.01,2013-08-04 16:27:00,
2013-08-04 11:32:00,83.6,74.0,29.98,East,97,0.0,0.0,73,0.00,,BKN090,0.00,370.30,VWS V14.01,2013-08-04 16:32:00,
2013-08-04 11:37:00,83.0,73.9,29.98,East,94,0.0,0.0,74,0.00,,BKN090,0.00,254.15,VWS V14.01,2013-08-04 16:37:00,
2013-08-04 11:42:00,82.4,74.1,29.98,East,82,0.0,0.0,76,0.00,,BKN090,0.00,210.45,VWS V14.01,2013-08-04 16:42:00,
2013-08-04 11:47:00,82.0,74.1,29.97,East,80,0.0,1.0,77,0.00,,BKN090,0.00,224.25,VWS V14.01,2013-08-04 16:47:00,
2013-08-04 11:52:00,82.2,74.3,29.97,East,80,0.0,0.0,77,0.00,,BKN090,0.00,250.70,VWS V14.01,2013-08-04 16:52:00,
2013-08-04 11:57:00,82.2,74.3,29.97,East,83,0.0,0.0,77,0.00,,BKN090,0.00,279.45,VWS V14.01,2013-08-04 16:57:00,
2013-08-04 12:02:00,82.6,74.7,29.97,East,85,0.0,0.0,77,0.00,,FEW020,0.00,301.30,VWS V14.01,2013-08-04 17:02:00,
2013-08-04 12:07:00,82.6,74.3,29.97,East,84,0.0,0.0,76,0.00,,FEW020,0.00,256.45,VWS V14.01,2013-08-04 17:07:00,
2013-08-04 12:12:00,82.4,74.5,29.97,East,90,0.0,0.0,77,0.00,,FEW020,0.00,230.00,VWS V14.01,2013-08-04 17:12:00,
2013-08-04 12:17:00,82.2,74.3,29.97,ENE,63,0.0,7.0,77,0.00,,FEW020,0.00,246.10,VWS V14.01,2013-08-04 17:17:00,
2013-08-04 12:22:00,82.4,74.5,29.97,ENE,63,4.0,4.0,77,0.00,,FEW020,0.00,266.80,VWS V14.01,2013-08-04 17:22:00,
2013-08-04 12:27:00,82.0,74.1,29.97,ENE,62,0.0,7.0,77,0.00,,FEW020,0.00,271.40,VWS V14.01,2013-08-04 17:27:00,
2013-08-04 12:32:00,82.2,74.3,29.96,ENE,75,0.0,1.0,77,0.00,,FEW020,0.00,315.10,VWS V14.01,2013-08-04 17:32:00,
2013-08-04 12:37:00,82.6,74.3,29.96,East,92,0.0,6.0,76,0.00,,FEW020,0.00,428.95,VWS V14.01,2013-08-04 17:37:00,
2013-08-04 12:42:00,83.0,74.7,29.96,East,94,0.0,1.0,76,0.00,,FEW020,0.00,446.20,VWS V14.01,2013-08-04 17:42:00,
2013-08-04 12:47:00,83.4,75.1,29.96,ESE,107,0.0,7.0,76,0.00,,FEW020,0.00,717.60,VWS V14.01,2013-08-04 17:47:00,
2013-08-04 12:52:00,84.3,75.1,29.96,ESE,109,0.0,4.0,74,0.00,,FEW020,0.00,780.85,VWS V14.01,2013-08-04 17:52:00,
2013-08-04 12:57:00,84.1,74.5,29.96,East,98,0.0,6.0,73,0.00,,FEW020,0.00,519.80,VWS V14.01,2013-08-04 17:57:00,
2013-08-04 13:02:00,84.1,74.5,29.95,NE,49,2.0,6.0,73,0.00,,FEW024,0.00,653.20,VWS V14.01,2013-08-04 18:02:00,
2013-08-04 13:07:00,84.9,75.3,29.95,ENE,69,0.0,6.0,73,0.00,,FEW024,0.00,596.85,VWS V14.01,2013-08-04 18:07:00,
2013-08-04 13:12:00,84.7,74.3,29.95,ESE,107,0.0,5.0,71,0.00,,FEW024,0.00,362.25,VWS V14.01,2013-08-04 18:12:00,
2013-08-04 13:17:00,84.3,74.3,29.95,East,92,0.0,7.0,72,0.00,,FEW024,0.00,269.10,VWS V14.01,2013-08-04 18:17:00,
2013-08-04 13:21:00,83.8,74.2,29.95,East,84,0.0,0.0,73,0.00,,FEW024,0.00,274.85,VWS V14.01,2013-08-04 18:21:00,
2013-08-04 13:27:00,84.1,74.1,29.95,East,98,0.0,5.0,72,0.00,,FEW024,0.00,261.05,VWS V14.01,2013-08-04 18:27:00,
2013-08-04 13:32:00,83.9,74.3,29.95,East,96,0.0,4.0,73,0.00,,FEW024,0.00,269.10,VWS V14.01,2013-08-04 18:32:00,
2013-08-04 13:37:00,84.1,74.1,29.95,ESE,104,0.0,4.0,72,0.00,,FEW024,0.00,303.60,VWS V14.01,2013-08-04 18:37:00,
2013-08-04 13:42:00,84.3,74.3,29.95,ESE,103,0.0,0.0,72,0.00,,FEW024,0.00,362.25,VWS V14.01,2013-08-04 18:42:00,
2013-08-04 13:47:00,84.5,74.9,29.95,ESE,103,0.0,3.0,73,0.00,,FEW024,0.00,414.00,VWS V14.01,2013-08-04 18:47:00,
2013-08-04 13:52:00,84.7,74.3,29.95,ESE,102,2.0,3.0,71,0.00,,FEW024,0.00,365.70,VWS V14.01,2013-08-04 18:52:00,
2013-08-04 13:57:00,84.5,74.5,29.95,East,97,0.0,3.0,72,0.00,,FEW024,0.00,339.25,VWS V14.01,2013-08-04 18:57:00,
2013-08-04 14:02:00,84.5,74.5,29.95,East,79,0.0,4.0,72,0.00,,CLR,0.00,315.10,VWS V14.01,2013-08-04 19:02:00,
2013-08-04 14:06:00,84.7,74.3,29.95,East,87,0.0,5.0,71,0.00,,CLR,0.00,304.75,VWS V14.01,2013-08-04 19:06:00,
2013-08-04 14:11:00,84.7,74.7,29.95,East,92,0.0,6.0,72,0.00,,CLR,0.00,304.75,VWS V14.01,2013-08-04 19:11:00,
2013-08-04 14:17:00,85.1,74.6,29.95,ESE,123,0.0,7.0,71,0.00,,CLR,0.00,311.65,VWS V14.01,2013-08-04 19:17:00,
2013-08-04 14:21:00,84.9,74.0,29.95,ESE,120,0.0,1.0,70,0.00,,CLR,0.00,362.25,VWS V14.01,2013-08-04 19:21:00,
2013-08-04 14:27:00,84.7,74.7,29.95,ESE,118,0.0,2.0,72,0.00,,CLR,0.00,438.15,VWS V14.01,2013-08-04 19:27:00,
2013-08-04 14:32:00,85.1,74.6,29.94,ESE,110,0.0,1.0,71,0.00,,CLR,0.00,410.55,VWS V14.01,2013-08-04 19:32:00,
2013-08-04 14:37:00,85.1,74.6,29.94,East,90,0.0,6.0,71,0.00,,CLR,0.00,495.65,VWS V14.01,2013-08-04 19:37:00,
2013-08-04 14:42:00,85.9,75.4,29.94,East,85,0.0,0.0,71,0.00,,CLR,0.00,695.75,VWS V14.01,2013-08-04 19:42:00,
2013-08-04 14:47:00,86.5,74.7,29.93,ESE,122,0.0,5.0,68,0.00,,CLR,0.00,543.95,VWS V14.01,2013-08-04 19:47:00,
2013-08-04 14:52:00,86.3,74.9,29.93,ESE,119,0.0,6.0,69,0.00,,CLR,0.00,624.45,VWS V14.01,2013-08-04 19:52:00,
2013-08-04 14:57:00,87.2,75.4,29.93,East,100,0.0,6.0,68,0.00,,CLR,0.00,672.75,VWS V14.01,2013-08-04 19:57:00,
2013-08-04 15:02:00,87.2,75.4,29.93,East,99,0.0,1.0,68,0.00,,CLR,0.00,733.70,VWS V14.01,2013-08-04 20:02:00,
2013-08-04 15:07:00,87.6,75.3,29.93,SE,144,0.0,9.0,67,0.00,,CLR,0.00,549.70,VWS V14.01,2013-08-04 20:07:00,
2013-08-04 15:12:00,88.2,75.9,29.93,SE,126,4.0,10.0,67,0.00,,CLR,0.00,596.85,VWS V14.01,2013-08-04 20:12:00,
2013-08-04 15:17:00,88.0,75.7,29.92,East,81,0.0,10.0,67,0.00,,CLR,0.00,899.30,VWS V14.01,2013-08-04 20:17:00,
2013-08-04 15:22:00,87.8,75.9,29.92,ESE,104,0.0,0.0,68,0.00,,CLR,0.00,410.55,VWS V14.01,2013-08-04 20:22:00,
2013-08-04 15:27:00,87.4,75.1,29.92,NE,55,0.0,6.0,67,0.00,,CLR,0.00,396.75,VWS V14.01,2013-08-04 20:27:00,
2013-08-04 15:32:00,86.8,75.4,29.92,ENE,63,0.0,6.0,69,0.00,,CLR,0.00,455.40,VWS V14.01,2013-08-04 20:32:00,
2013-08-04 15:37:00,87.2,75.4,29.92,ENE,77,0.0,11.0,68,0.00,,CLR,0.00,483.00,VWS V14.01,2013-08-04 20:37:00,
2013-08-04 15:42:00,87.4,76.0,29.92,East,89,0.0,0.0,69,0.00,,CLR,0.00,480.70,VWS V14.01,2013-08-04 20:42:00,
2013-08-04 15:47:00,87.6,75.7,29.91,ESE,103,0.0,4.0,68,0.00,,CLR,0.00,485.30,VWS V14.01,2013-08-04 20:47:00,
2013-08-04 15:52:00,87.8,75.5,29.91,ENE,65,0.0,7.0,67,0.00,,CLR,0.00,379.50,VWS V14.01,2013-08-04 20:52:00,
2013-08-04 15:57:00,87.2,75.8,29.91,ENE,67,5.0,7.0,69,0.00,,CLR,0.00,331.20,VWS V14.01,2013-08-04 20:57:00,
2013-08-04 16:02:00,87.0,75.6,29.91,East,101,0.0,6.0,69,0.00,,CLR,0.00,304.75,VWS V14.01,2013-08-04 21:02:00,
2013-08-04 16:07:00,87.0,75.6,29.91,SE,130,0.0,6.0,69,0.00,,CLR,0.00,285.20,VWS V14.01,2013-08-04 21:07:00,
2013-08-04 16:12:00,87.0,75.6,29.91,SE,132,0.0,6.0,69,0.00,,CLR,0.00,312.80,VWS V14.01,2013-08-04 21:12:00,
2013-08-04 16:17:00,87.0,75.6,29.90,East,96,0.0,6.0,69,0.00,,CLR,0.00,293.25,VWS V14.01,2013-08-04 21:17:00,
2013-08-04 16:22:00,87.2,75.4,29.90,SSE,149,0.0,0.0,68,0.00,,CLR,0.00,254.15,VWS V14.01,2013-08-04 21:22:00,
2013-08-04 16:27:00,87.2,75.8,29.90,SSE,148,0.0,0.0,69,0.00,,CLR,0.00,230.00,VWS V14.01,2013-08-04 21:27:00,
2013-08-04 16:32:00,87.2,75.8,29.90,East,80,1.0,3.0,69,0.00,,CLR,0.00,287.50,VWS V14.01,2013-08-04 21:32:00,
2013-08-04 16:37:00,86.5,75.6,29.90,ENE,61,0.0,9.0,70,0.00,,CLR,0.00,338.10,VWS V14.01,2013-08-04 21:37:00,
2013-08-04 16:42:00,86.8,75.8,29.90,East,82,0.0,3.0,70,0.00,,CLR,0.00,581.90,VWS V14.01,2013-08-04 21:42:00,
2013-08-04 16:47:00,87.4,76.4,29.89,ESE,108,4.0,4.0,70,0.00,,CLR,0.00,319.70,VWS V14.01,2013-08-04 21:47:00,
2013-08-04 16:49:00,87.4,75.6,29.89,ESE,121,0.0,4.0,68,0.00,,CLR,0.00,296.70,VWS V14.01,2013-08-04 21:49:00,
2013-08-04 16:54:00,87.4,76.4,29.89,ENE,76,3.0,5.0,70,0.00,,CLR,0.00,287.50,VWS V14.01,2013-08-04 21:54:00,
2013-08-04 16:59:00,87.2,75.8,29.89,SE,131,0.0,7.0,69,0.00,,CLR,0.00,315.10,VWS V14.01,2013-08-04 21:59:00,
2013-08-04 17:04:00,87.6,75.7,29.88,East,94,3.0,5.0,68,0.00,,FEW025,0.00,277.15,VWS V14.01,2013-08-04 22:04:00,
2013-08-04 17:09:00,87.2,75.4,29.88,East,101,0.0,5.0,68,0.00,,FEW025,0.00,269.10,VWS V14.01,2013-08-04 22:09:00,
2013-08-04 17:14:00,87.2,75.8,29.88,ESE,123,0.0,5.0,69,0.00,,FEW025,0.00,226.55,VWS V14.01,2013-08-04 22:14:00,
2013-08-04 17:19:00,87.2,75.8,29.88,SE,140,0.0,5.0,69,0.00,,FEW025,0.00,194.35,VWS V14.01,2013-08-04 22:19:00,
2013-08-04 17:24:00,87.0,76.0,29.88,ESE,119,0.0,5.0,70,0.00,,FEW025,0.00,175.95,VWS V14.01,2013-08-04 22:24:00,
2013-08-04 17:29:00,87.0,76.0,29.88,SE,142,0.0,5.0,70,0.00,,FEW025,0.00,154.10,VWS V14.01,2013-08-04 22:29:00,
2013-08-04 17:34:00,86.8,75.4,29.88,SE,139,5.0,6.0,69,0.00,,FEW025,0.00,151.80,VWS V14.01,2013-08-04 22:34:00,
2013-08-04 17:38:00,86.8,75.4,29.88,SE,127,0.0,6.0,69,0.00,,FEW025,0.00,154.10,VWS V14.01,2013-08-04 22:38:00,
2013-08-04 17:44:00,87.0,75.6,29.88,SE,126,0.0,1.0,69,0.00,,FEW025,0.00,151.80,VWS V14.01,2013-08-04 22:44:00,
2013-08-04 17:49:00,87.0,76.0,29.87,ESE,115,0.0,5.0,70,0.00,,FEW025,0.00,147.20,VWS V14.01,2013-08-04 22:49:00,
2013-08-04 17:54:00,87.0,76.0,29.87,ESE,123,0.0,2.0,70,0.00,,FEW025,0.00,149.50,VWS V14.01,2013-08-04 22:54:00,
2013-08-04 17:59:00,87.0,75.6,29.87,SE,130,5.0,5.0,69,0.00,,FEW025,0.00,155.25,VWS V14.01,2013-08-04 22:59:00,
2013-08-04 18:04:00,87.0,75.6,29.86,SE,137,0.0,1.0,69,0.00,,CLR,0.00,162.15,VWS V14.01,2013-08-04 23:04:00,
2013-08-04 18:09:00,87.0,76.0,29.86,ESE,109,0.0,7.0,70,0.00,,CLR,0.00,138.00,VWS V14.01,2013-08-04 23:09:00,
2013-08-04 18:14:00,87.0,76.0,29.86,SE,142,0.0,8.0,70,0.00,,CLR,0.00,119.60,VWS V14.01,2013-08-04 23:14:00,
2013-08-04 18:19:00,87.0,76.0,29.86,SSE,167,0.0,8.0,70,0.00,,CLR,0.00,112.70,VWS V14.01,2013-08-04 23:19:00,
2013-08-04 18:24:00,86.8,75.8,29.86,SE,127,0.0,7.0,70,0.00,,CLR,0.00,93.15,VWS V14.01,2013-08-04 23:24:00,
2013-08-04 18:28:00,86.8,75.8,29.86,SE,140,0.0,7.0,70,0.00,,CLR,0.00,77.05,VWS V14.01,2013-08-04 23:28:00,
2013-08-04 18:34:00,86.8,75.8,29.86,East,94,3.0,3.0,70,0.00,,CLR,0.00,77.05,VWS V14.01,2013-08-04 23:34:00,
2013-08-04 18:38:00,86.8,75.8,29.86,SE,129,0.0,6.0,70,0.00,,CLR,0.00,82.80,VWS V14.01,2013-08-04 23:38:00,
2013-08-04 18:43:00,86.8,75.8,29.86,SE,138,0.0,4.0,70,0.00,,CLR,0.00,90.85,VWS V14.01,2013-08-04 23:43:00,
2013-08-04 18:48:00,86.8,75.8,29.86,SE,142,0.0,10.0,70,0.00,,CLR,0.00,87.40,VWS V14.01,2013-08-04 23:48:00,
2013-08-04 18:54:00,86.8,75.8,29.86,SE,136,0.0,8.0,70,0.00,,CLR,0.00,74.75,VWS V14.01,2013-08-04 23:54:00,
2013-08-04 18:59:00,86.8,75.8,29.86,SE,133,0.0,8.0,70,0.00,,CLR,0.00,71.30,VWS V14.01,2013-08-04 23:59:00,
2013-08-04 19:04:00,86.8,75.8,29.85,SE,145,0.0,10.0,70,0.00,,CLR,0.00,74.75,VWS V14.01,2013-08-05 00:04:00,
2013-08-04 19:09:00,86.8,76.3,29.85,ESE,119,0.0,10.0,71,0.00,,CLR,0.00,90.85,VWS V14.01,2013-08-05 00:09:00,
2013-08-04 19:14:00,86.8,76.3,29.85,SE,146,0.0,7.0,71,0.00,,CLR,0.00,80.50,VWS V14.01,2013-08-05 00:14:00,
2013-08-04 19:18:00,86.8,76.3,29.85,SE,137,3.0,12.0,71,0.00,,CLR,0.00,69.00,VWS V14.01,2013-08-05 00:18:00,
2013-08-04 19:23:00,86.8,76.3,29.85,SE,127,0.0,1.0,71,0.00,,CLR,0.00,54.05,VWS V14.01,2013-08-05 00:23:00,
2013-08-04 19:28:00,86.8,76.3,29.85,South,179,0.0,10.0,71,0.00,,CLR,0.00,44.85,VWS V14.01,2013-08-05 00:28:00,
2013-08-04 19:34:00,86.5,76.0,29.85,SE,143,0.0,0.0,71,0.00,,CLR,0.00,29.90,VWS V14.01,2013-08-05 00:34:00,
2013-08-04 19:38:00,86.5,76.4,29.85,SE,132,0.0,6.0,72,0.00,,CLR,0.00,21.85,VWS V14.01,2013-08-05 00:38:00,
2013-08-04 19:44:00,86.5,76.4,29.85,SSE,150,0.0,5.0,72,0.00,,CLR,0.00,20.70,VWS V14.01,2013-08-05 00:44:00,
2013-08-04 19:49:00,86.3,76.2,29.85,SSE,149,0.0,6.0,72,0.00,,CLR,0.00,18.40,VWS V14.01,2013-08-05 00:49:00,
2013-08-04 19:54:00,86.1,76.0,29.85,SE,146,0.0,6.0,72,0.00,,CLR,0.00,16.10,VWS V14.01,2013-08-05 00:54:00,
2013-08-04 19:59:00,86.1,76.4,29.85,SSE,150,2.0,6.0,73,0.00,,CLR,0.00,13.80,VWS V14.01,2013-08-05 00:59:00,
2013-08-04 20:04:00,85.9,76.2,29.85,SSE,147,5.0,10.0,73,0.00,,CLR,0.00,12.65,VWS V14.01,2013-08-05 01:04:00,
2013-08-04 20:09:00,85.7,76.1,29.85,SSE,147,0.0,10.0,73,0.00,,CLR,0.00,10.35,VWS V14.01,2013-08-05 01:09:00,
2013-08-04 20:14:00,85.5,75.9,29.85,South,171,0.0,7.0,73,0.00,,CLR,0.00,8.05,VWS V14.01,2013-08-05 01:14:00,
2013-08-04 20:19:00,85.3,75.7,29.86,SSE,159,1.0,9.0,73,0.00,,CLR,0.00,5.75,VWS V14.01,2013-08-05 01:19:00,
2013-08-04 20:23:00,85.1,75.5,29.86,SSE,157,0.0,11.0,73,0.00,,CLR,0.00,0.00,VWS V14.01,2013-08-05 01:23:00,
2013-08-04 20:28:00,84.9,75.3,29.86,SE,128,4.0,11.0,73,0.00,,CLR,0.00,0.00,VWS V14.01,2013-08-05 01:28:00,
2013-08-04 20:34:00,84.7,74.3,29.86,SSE,167,4.0,10.0,71,0.00,,CLR,0.00,0.00,VWS V14.01,2013-08-05 01:34:00,
2013-08-04 20:39:00,84.3,73.0,29.86,South,170,8.0,15.0,69,0.00,,CLR,0.00,0.00,VWS V14.01,2013-08-05 01:39:00,
2013-08-04 20:43:00,84.1,72.4,29.86,SSE,152,4.0,7.0,68,0.00,,CLR,0.00,0.00,VWS V14.01,2013-08-05 01:43:00,
2013-08-04 20:49:00,83.8,70.8,29.86,SSE,167,0.0,12.0,65,0.00,,CLR,0.00,0.00,VWS V14.01,2013-08-05 01:49:00,
2013-08-04 20:54:00,83.4,69.5,29.86,ESE,111,1.0,11.0,63,0.00,,CLR,0.00,0.00,VWS V14.01,2013-08-05 01:54:00,
2013-08-04 20:58:00,83.2,69.3,29.86,SSE,148,0.0,11.0,63,0.00,,CLR,0.00,0.00,VWS V14.01,2013-08-05 01:58:00,
2013-08-04 21:03:00,82.8,68.9,29.86,SSE,153,2.0,9.0,63,0.00,,CLR,0.00,0.00,VWS V14.01,2013-08-05 02:03:00,
2013-08-04 21:09:00,82.6,69.2,29.86,SSE,152,0.0,9.0,64,0.00,,CLR,0.00,0.00,VWS V14.01,2013-08-05 02:09:00,
2013-08-04 21:13:00,82.4,69.0,29.86,SSE,166,0.0,9.0,64,0.00,,CLR,0.00,0.00,VWS V14.01,2013-08-05 02:13:00,
2013-08-04 21:18:00,82.2,68.8,29.87,South,175,2.0,10.0,64,0.00,,CLR,0.00,0.00,VWS V14.01,2013-08-05 02:18:00,
2013-08-04 21:24:00,82.0,69.1,29.87,SSE,166,0.0,13.0,65,0.00,,CLR,0.00,0.00,VWS V14.01,2013-08-05 02:24:00,
2013-08-04 21:28:00,81.8,68.9,29.87,SSE,162,0.0,13.0,65,0.00,,CLR,0.00,0.00,VWS V14.01,2013-08-05 02:28:00,
2013-08-04 21:33:00,81.6,69.2,29.87,SSE,159,0.0,6.0,66,0.00,,CLR,0.00,0.00,VWS V14.01,2013-08-05 02:33:00,
2013-08-04 21:38:00,81.6,69.2,29.87,SSE,161,0.0,6.0,66,0.00,,CLR,0.00,0.00,VWS V14.01,2013-08-05 02:38:00,
2013-08-04 21:43:00,81.4,69.0,29.87,SSE,158,1.0,3.0,66,0.00,,CLR,0.00,0.00,VWS V14.01,2013-08-05 02:43:00,
2013-08-04 21:48:00,81.2,69.2,29.88,SSE,164,0.0,6.0,67,0.00,,CLR,0.00,0.00,VWS V14.01,2013-08-05 02:48:00,
2013-08-04 21:53:00,81.0,69.0,29.88,SSE,153,0.0,4.0,67,0.00,,CLR,0.00,0.00,VWS V14.01,2013-08-05 02:53:00,
2013-08-04 21:58:00,81.0,69.0,29.88,SE,138,0.0,10.0,67,0.00,,CLR,0.00,0.00,VWS V14.01,2013-08-05 02:58:00,
2013-08-04 22:03:00,80.9,69.4,29.88,SE,141,0.0,2.0,68,0.00,,CLR,0.00,0.00,VWS V14.01,2013-08-05 03:03:00,
2013-08-04 22:08:00,80.7,69.2,29.88,SSE,153,0.0,2.0,68,0.00,,CLR,0.00,0.00,VWS V14.01,2013-08-05 03:08:00,
2013-08-04 22:13:00,80.7,69.6,29.88,SSE,167,0.0,6.0,69,0.00,,CLR,0.00,0.00,VWS V14.01,2013-08-05 03:13:00,
2013-08-04 22:18:00,80.7,69.6,29.89,SE,131,0.0,6.0,69,0.00,,CLR,0.00,0.00,VWS V14.01,2013-08-05 03:18:00,
2013-08-04 22:23:00,80.5,69.4,29.89,SSE,165,0.0,8.0,69,0.00,,CLR,0.00,0.00,VWS V14.01,2013-08-05 03:23:00,
2013-08-04 22:28:00,80.3,69.6,29.89,South,171,0.0,8.0,70,0.00,,CLR,0.00,0.00,VWS V14.01,2013-08-05 03:28:00,
2013-08-04 22:33:00,80.3,69.6,29.88,SE,145,0.0,0.0,70,0.00,,CLR,0.00,0.00,VWS V14.01,2013-08-05 03:33:00,
2013-08-04 22:38:00,80.1,69.9,29.88,SSE,165,0.0,6.0,71,0.00,,CLR,0.00,0.00,VWS V14.01,2013-08-05 03:38:00,
2013-08-04 22:43:00,80.1,69.9,29.88,SSE,165,0.0,4.0,71,0.00,,CLR,0.00,0.00,VWS V14.01,2013-08-05 03:43:00,
2013-08-04 22:48:00,79.9,69.7,29.88,SSE,157,0.0,12.0,71,0.00,,CLR,0.00,0.00,VWS V14.01,2013-08-05 03:48:00,
2013-08-04 22:53:00,79.9,70.1,29.88,South,170,0.0,4.0,72,0.00,,CLR,0.00,0.00,VWS V14.01,2013-08-05 03:53:00,
2013-08-04 22:58:00,79.7,69.9,29.88,South,170,0.0,5.0,72,0.00,,CLR,0.00,0.00,VWS V14.01,2013-08-05 03:58:00,
2013-08-04 23:01:00,79.7,69.9,29.88,SSE,166,2.0,2.0,72,0.00,,CLR,0.00,0.00,VWS V14.01,2013-08-05 04:01:00,
2013-08-04 23:06:00,79.6,69.8,29.88,ESE,119,0.0,9.0,72,0.00,,CLR,0.00,0.00,VWS V14.01,2013-08-05 04:06:00,
2013-08-04 23:11:00,79.6,70.2,29.88,SSE,166,0.0,4.0,73,0.00,,CLR,0.00,0.00,VWS V14.01,2013-08-05 04:11:00,
2013-08-04 23:16:00,79.4,70.0,29.88,South,169,0.0,7.0,73,0.00,,CLR,0.00,0.00,VWS V14.01,2013-08-05 04:16:00,
2013-08-04 23:21:00,79.4,70.4,29.88,SSE,164,0.0,0.0,74,0.00,,CLR,0.00,0.00,VWS V14.01,2013-08-05 04:21:00,
2013-08-04 23:26:00,79.4,70.4,29.88,SSE,165,1.0,9.0,74,0.00,,CLR,0.00,0.00,VWS V14.01,2013-08-05 04:26:00,
2013-08-04 23:31:00,79.2,70.2,29.88,SE,127,0.0,1.0,74,0.00,,CLR,0.00,0.00,VWS V14.01,2013-08-05 04:31:00,
2013-08-04 23:35:00,79.2,70.6,29.88,SE,144,0.0,9.0,75,0.00,,CLR,0.00,0.00,VWS V14.01,2013-08-05 04:35:00,
2013-08-04 23:41:00,79.0,70.4,29.88,SSE,163,1.0,4.0,75,0.00,,CLR,0.00,0.00,VWS V14.01,2013-08-05 04:41:00,
2013-08-04 23:46:00,79.0,70.4,29.88,SSE,159,0.0,5.0,75,0.00,,CLR,0.00,0.00,VWS V14.01,2013-08-05 04:46:00,
2013-08-04 23:50:00,78.8,70.6,29.88,SSE,163,0.0,0.0,76,0.00,,CLR,0.00,0.00,VWS V14.01,2013-08-05 04:50:00,
2013-08-04 23:56:00,78.8,70.6,29.88,SE,136,0.0,5.0,76,0.00,,CLR,0.00,0.00,VWS V14.01,2013-08-05 04:56:00,